IRNSS-1A

Last updated on Tue Oct 15 2024 00:02:39 GMT+0000 (Coordinated Universal Time)

1 39199U 13034A 24288.48999340 .00000102 00000+0 00000+0 0 9993 2 39199 34.3487 72.7021 0021595 181.1491 1.1001 1.00275135 41246
UTC large
Height (km)
Speed (km/s)
/
Latitude / Longitude
Inclination (degrees)
Orbital Period (minutes)
Azimuth
Elevation
Range (km)
Doppler Factor

Next 0 passes for location: London (51.5072 / 0.1276)

Sorry there are no passes over London.